Voltar ao catálogo

AAC-HSI-SAT3

AtivoCiênciaSSO
NORAD 58848·PAYLOAD·🇬🇧 United Kingdom

Lançado Nov 11, 2023 de Vandenberg Space Force Base

Loading…

Próximas Passagens (próximas 24 horas)

TLE

AtualizadoSource: Space-Track

Época: Sep 14, 2026, 15:29 UTC

1 58848U 23174DH  26257.64569728  .00001743  00000-0  93598-4 0  9992
2 58848  97.3319 314.0587 0011894  61.5791 298.6640 15.16136701157455

Acompanhe AAC-HSI-SAT3 em tempo real com AllMySat

Download on the App Store